DateTimeUTC,F1_A11,F1_S11,BsB_S11,BsG_S11,BsR_S11,BbsB_S11,BbsG_S11,BbsR_S11,BaB_A11,BaG_A11,BaR_A11,Tu_S11,T_S11,Uu_S11,U_S11,P_S11,T1_A11
2021-09-14T04:00:00Z,00000200,21000000,,,,,,,0000.39,0000.16,0000.15,18.6,25.6,00.9,00.6,0659.6,31.1
2021-09-14T04:01:00Z,00000200,21000000,,,,,,,-000.21,-000.39,-000.02,18.6,25.5,00.9,00.6,0659.6,31.1
2021-09-14T04:02:00Z,00000200,21000000,,,,,,,0000.00,0000.17,-000.13,18.6,25.6,00.9,00.6,0659.5,31.1
2021-09-14T04:03:00Z,00000200,61000000,,,,,,,0000.25,0000.14,0000.26,18.6,25.7,00.9,00.6,0659.5,31.1
2021-09-14T04:04:00Z,00000200,41010000,0001.72,0001.13,0000.77,0000.51,0000.14,0000.18,0000.70,0000.12,-000.10,18.7,25.5,01.2,00.8,0660.2,31.1
2021-09-14T04:05:00Z,00000200,01000000,0001.22,0001.10,0000.78,0000.65,0000.30,0000.23,0000.32,0000.48,0000.60,18.8,25.4,01.2,00.8,0660.3,31.0
2021-09-14T04:06:00Z,00000200,01000000,0001.09,0000.85,0001.18,0000.04,0000.24,0000.01,-000.11,0000.41,0000.17,18.8,25.4,01.3,00.9,0660.2,31.0
2021-09-14T04:07:00Z,00000200,01000000,0001.48,0001.11,0000.42,0000.12,-000.01,0000.26,0000.51,0000.29,0000.43,18.7,25.4,01.3,00.8,0660.3,31.0
2021-09-14T04:08:00Z,00000200,01000000,0000.48,0000.83,0000.62,0000.71,0000.52,0000.10,0000.77,0000.23,0000.18,18.7,25.3,01.4,00.9,0660.2,31.0
2021-09-14T04:09:00Z,00000200,01000000,0001.47,0000.99,0000.69,0001.16,0000.04,0000.53,0000.25,0000.53,0000.48,18.7,25.3,01.4,00.9,0660.2,31.0
2021-09-14T04:10:00Z,00000200,01000000,0001.88,0000.97,0000.61,0000.03,-000.09,0000.42,0000.74,0000.40,0000.28,18.6,25.3,01.5,01.0,0660.2,31.0
2021-09-14T04:11:00Z,00000200,01000000,0001.14,0001.10,0000.74,0000.27,0000.24,0000.09,0000.74,0001.03,0000.66,18.7,25.3,01.6,01.1,0660.1,31.0
2021-09-14T04:12:00Z,00000200,01000000,0001.00,0001.08,0000.60,0000.69,0000.32,0000.24,0000.95,0000.85,0000.69,18.7,25.3,01.6,01.1,0660.2,31.0
2021-09-14T04:13:00Z,00000200,01000000,0001.42,0000.73,0000.97,0000.35,0000.40,0000.25,0000.38,0000.40,0000.16,18.8,25.4,01.6,01.0,0660.2,31.1
2021-09-14T04:14:00Z,00000200,01000000,0001.69,0001.21,0000.48,0000.08,0000.13,-000.04,0000.19,0000.57,0000.47,18.9,25.4,01.6,01.1,0660.2,31.1
2021-09-14T04:15:00Z,00000200,01000000,0001.89,0001.16,0000.72,0000.38,0000.37,0000.53,0000.36,0000.15,0000.45,19.0,25.5,01.6,01.1,0660.2,31.1
2021-09-14T04:16:00Z,00000200,01000000,0001.98,0000.98,0000.65,0000.70,0000.40,0000.08,0000.64,0000.20,0000.27,19.0,25.5,01.7,01.1,0660.2,31.1
2021-09-14T04:17:00Z,00000200,01000000,0001.62,0000.95,0000.25,0000.27,0000.38,0000.18,0000.06,0000.35,0000.07,19.0,25.5,01.6,01.1,0660.3,31.1
2021-09-14T04:18:00Z,00000200,01000000,0000.86,0000.90,0000.68,0000.77,0000.25,-000.14,0000.05,0000.16,-000.08,18.9,25.5,01.6,01.1,0660.3,31.1
2021-09-14T04:19:00Z,00000200,01000000,0000.97,0001.09,0000.37,0000.12,0000.41,-000.07,0000.18,0000.21,0000.07,18.9,25.4,01.5,01.0,0660.3,31.1
2021-09-14T04:20:00Z,00000200,01000000,0000.91,0001.03,0001.02,0000.48,0000.04,0000.32,0000.30,-000.12,0000.28,18.9,25.4,01.5,01.0,0660.3,31.0
2021-09-14T04:21:00Z,00000200,01000000,0001.28,0000.86,0000.74,0000.85,0000.28,0000.10,0000.13,0000.13,0000.08,18.8,25.4,01.5,01.0,0660.3,31.0
2021-09-14T04:22:00Z,00000200,01000000,0001.03,0000.81,0000.82,0000.54,0000.53,0000.17,0000.37,0000.45,0000.45,18.8,25.4,01.4,01.0,0660.3,31.0
2021-09-14T04:23:00Z,00000200,01000000,0001.30,0000.92,0000.77,0000.35,0000.33,0000.31,0000.22,0000.10,-000.20,18.8,25.4,01.5,01.0,0660.3,31.0
2021-09-14T04:24:00Z,00000200,01000000,0001.82,0000.81,0000.44,0001.00,0000.04,-000.13,0000.41,0000.30,0000.19,18.7,25.3,01.4,01.0,0660.3,31.0
2021-09-14T04:25:00Z,00000200,01000000,0001.67,0001.16,0000.80,0000.17,0000.16,0000.24,0000.18,0000.16,0000.67,18.7,25.3,01.4,00.9,0660.3,31.0
2021-09-14T04:26:00Z,00000200,01000000,0001.28,0000.79,0000.56,0000.82,0000.37,0000.15,0000.79,0000.76,0000.32,18.7,25.3,01.3,00.9,0660.3,31.0
2021-09-14T04:27:00Z,00000200,01000000,0001.37,0000.63,0000.73,0000.68,0000.54,0000.46,0000.23,0000.46,0000.54,18.8,25.3,01.4,01.0,0660.3,31.0
2021-09-14T04:28:00Z,00000200,01000000,0001.01,0001.00,0000.83,0000.48,0000.33,0000.15,0000.40,0000.19,0000.06,18.9,25.4,01.4,00.9,0660.4,31.1
2021-09-14T04:29:00Z,00000200,01000000,0000.98,0000.92,0000.43,0000.39,0000.40,0000.14,0000.40,0000.78,0000.46,19.0,25.5,01.3,00.8,0660.4,31.1
2021-09-14T04:30:00Z,00000200,01000000,0001.40,0000.97,0000.44,0000.22,0000.06,-000.09,0000.58,0000.21,0000.51,19.1,25.5,01.3,00.9,0660.5,31.1
2021-09-14T04:31:00Z,00000200,01000000,0000.83,0001.08,0000.89,0000.61,0000.16,0000.13,-000.16,0000.10,0000.19,19.2,25.6,01.2,00.8,0660.5,31.1
2021-09-14T04:32:00Z,00000200,01000000,0001.23,0001.01,0000.85,0000.15,-000.02,-000.02,0000.48,0000.42,0000.03,19.3,25.6,01.2,00.8,0660.5,31.1
2021-09-14T04:33:00Z,00000200,01000000,0002.10,0000.83,0000.21,0000.34,0000.55,0000.02,0000.26,-000.23,0000.12,19.2,25.6,01.1,00.8,0660.5,31.1
2021-09-14T04:34:00Z,00000200,01000000,0001.83,0001.18,0000.67,0000.80,0000.08,0000.27,-000.19,0000.48,-000.29,19.2,25.6,01.1,00.7,0660.5,31.1
2021-09-14T04:35:00Z,00000200,01000000,0001.19,0001.45,0000.91,0001.24,0000.72,0000.12,-000.03,-000.58,0000.39,19.1,25.6,01.1,00.7,0660.5,31.1
2021-09-14T04:36:00Z,00000200,01000000,0001.60,0001.18,0000.56,0000.21,0000.23,0000.20,0000.22,0000.39,-000.08,19.1,25.5,01.1,00.7,0660.5,31.1
2021-09-14T04:37:00Z,00000200,01000000,0001.34,0000.88,0000.78,0000.53,0000.39,0000.29,0000.27,0000.11,0000.03,19.0,25.5,01.1,00.7,0660.5,31.1
2021-09-14T04:38:00Z,00000200,01000000,0001.33,0001.20,0000.74,0000.77,0000.31,0000.20,0000.43,0000.50,0000.18,19.0,25.5,01.0,00.7,0660.5,31.1
2021-09-14T04:39:00Z,00000200,01000000,0000.87,0000.95,0000.39,0000.08,0000.37,0000.41,0000.32,0000.61,0000.55,19.0,25.5,01.1,00.7,0660.4,31.1
2021-09-14T04:40:00Z,00000200,01000000,0001.15,0001.43,0000.91,0000.30,0000.25,0000.15,0000.69,0000.39,0000.74,18.9,25.4,01.2,00.8,0660.4,31.1
2021-09-14T04:41:00Z,00000200,01000000,0001.25,0000.92,0000.89,0001.09,0000.22,0000.17,0000.46,0000.99,0000.39,18.9,25.4,01.2,00.8,0660.5,31.1
2021-09-14T04:42:00Z,00000200,01000000,0001.92,0001.03,0000.73,0000.98,0000.20,0000.15,0000.54,0000.37,0000.33,19.0,25.5,01.2,00.8,0660.5,31.1
2021-09-14T04:43:00Z,00000200,01000000,0001.42,0001.38,0000.47,0001.03,0000.27,0000.23,0000.36,0000.02,0000.34,19.1,25.5,01.1,00.8,0660.5,31.1
2021-09-14T04:44:00Z,00000200,01000000,0001.42,0001.04,0000.55,0000.98,0000.31,0000.30,0000.26,0000.52,0000.04,19.1,25.5,01.1,00.7,0660.6,31.1
2021-09-14T04:45:00Z,00000200,01000000,0001.29,0001.14,0000.86,0000.28,0000.14,0000.47,0000.27,-000.29,0000.26,19.1,25.5,01.1,00.7,0660.6,31.1
2021-09-14T04:46:00Z,00000200,01000000,0001.64,0001.33,0000.43,0000.87,0000.01,0000.14,0000.11,0000.29,0000.02,19.1,25.5,01.1,00.8,0660.6,31.1
2021-09-14T04:47:00Z,00000200,01000000,0000.93,0000.95,0000.55,0000.39,0000.47,0000.33,0000.34,0000.21,-000.13,19.1,25.5,01.0,00.7,0660.6,31.1
2021-09-14T04:48:00Z,00000200,01000000,0001.77,0000.97,0000.29,0000.78,0000.26,0000.24,-000.01,0000.12,0000.74,19.0,25.5,01.0,00.7,0660.5,31.1
2021-09-14T04:49:00Z,00000200,01000000,0001.30,0000.78,0001.02,0000.98,0000.10,0000.47,0000.64,0000.62,-000.28,19.0,25.5,01.0,00.7,0660.5,31.0
2021-09-14T04:50:00Z,00000200,01000000,0001.81,0000.88,0000.57,0000.68,0000.42,0000.32,0000.23,0000.41,0000.40,18.9,25.5,01.0,00.6,0660.6,31.1
2021-09-14T04:51:00Z,00000200,01000000,0001.96,0000.67,0000.88,0000.25,0000.53,0000.14,0000.35,0000.13,0000.39,18.9,25.4,01.1,00.7,0660.5,31.0
2021-09-14T04:52:00Z,00000200,01000000,0001.65,0001.24,0000.61,0001.25,0000.08,0000.05,0000.48,0000.39,0000.08,18.9,25.4,01.0,00.7,0660.5,31.0
2021-09-14T04:53:00Z,00000200,01000000,0001.37,0000.80,0000.81,-000.23,0000.58,0000.48,0000.31,0000.06,0000.08,18.8,25.4,01.1,00.8,0660.5,31.0
2021-09-14T04:54:00Z,00000200,01000000,0001.97,0000.99,0000.74,0000.70,0000.19,0000.09,0000.69,0000.57,0000.69,18.8,25.4,01.2,00.8,0660.5,31.0
2021-09-14T04:55:00Z,00000200,01000000,0001.37,0001.15,0001.08,0000.13,0000.22,0000.07,0000.40,0000.98,0000.69,18.8,25.4,01.1,00.7,0660.5,31.0
2021-09-14T04:56:00Z,00000200,01000000,0000.83,0000.85,0000.78,0000.59,0000.40,0000.39,0000.77,0000.34,0000.67,18.8,25.4,01.2,00.8,0660.4,31.1
2021-09-14T04:57:00Z,00000200,41000000,,,,,,,0000.50,0000.64,0000.55,18.9,25.4,00.6,00.4,0660.2,31.1
2021-09-14T04:58:00Z,00000200,61000000,,,,,,,-000.24,-000.60,-000.51,18.7,25.6,01.2,00.8,0659.5,31.1
2021-09-14T04:59:00Z,00000200,21000000,,,,,,,0000.20,0000.44,-000.02,18.7,25.7,01.2,00.8,0659.5,31.1
